Location: Agendoh
(31.0664°N, 8.9343°W)
Time: 18:07:42
(UTC+00:00)

Lacrosse 5 - Pass Details

Date: 30 June 2022
Orbit: 714 x 724 km, 57.0° (Epoch: 09 March)

Event Time Altitude Azimuth Distance (km) Brightness Sun altitude
Rises 22:12:37 0° 332° (NNW) 3,137 6.5 -25.4°
Reaches altitude 10° 22:15:16 10° 343° (NNW) 2,213 5.3 -25.7°
Maximum altitude 22:19:47 31° 45° (NE) 1,252 3.1 -26.3°
Enters shadow 22:20:08 31° 53° (NE) 1,259 3.1 -26.3°
